Location: San Dimas
(34.1067°N, 117.8067°W)
Time: 20:20:38
(UTC+00:00)

Daily predictions for brighter satellites

Satellite Brightness Start Highest point End
(mag) Time Altitude Azimuth Time Altitude Azimuth Time Altitude Azimuth
Cosmos 2237 Rocket 2.7 12:18:25 49° S 12:18:25 49° S 12:22:27 10° SSE
Cosmos 1464 Rocket 4.0 12:14:43 10° S 12:20:55 75° E 12:27:05 10° N
COSMO-SKYMED 1 4.2 12:34:54 10° SE 12:38:45 32° ENE 12:42:36 10° N
Cosmos 1812 3.5 12:39:10 45° NE 12:39:47 50° E 12:43:31 10° SSE
Cosmos 1072 Rocket 4.3 12:34:04 10° SSW 12:40:07 68° W 12:46:13 10° N
Aureole 1 Rocket 3.9 12:38:58 34° N 12:41:36 82° ENE 12:48:41 10° SSE
Okean O Rocket 3.8 12:40:12 10° NE 12:43:51 26° E 12:47:31 10° SSE
Cosmos 1470 Rocket 3.5 12:43:29 10° S 12:47:57 88° E 12:52:27 10° N
STARLINK-48 4.5 12:50:23 36° S 12:50:23 36° S 12:53:05 10° SSE
Cosmos 2263 Rocket 3.8 12:47:24 10° SSE 12:52:25 35° ESE 12:57:26 10° NE
STARLINK-44 4.5 12:52:15 36° N 12:53:02 41° NE 12:56:51 10° ESE
STARLINK-36 4.4 12:55:26 37° N 12:56:22 44° NE 13:00:12 10° ESE
Cosmos 1862 Rocket 3.6 12:54:19 23° N 12:57:04 84° E 13:01:33 10° S
STARLINK-35 4.2 13:00:13 37° N 13:01:20 49° NE 13:05:14 10° ESE
Cosmos 1624 Rocket 3.9 12:56:11 10° SSW 13:01:28 73° WNW 13:06:48 10° NNE
Gbstr 26 Del rocket 3.5 13:03:10 35° SSW 13:03:10 35° SSW 13:06:14 10° SSE
STARLINK-51 4.1 13:01:48 37° N 13:03:00 51° NE 13:06:55 10° ESE
Nadezhda 4 Rocket 4.0 12:57:33 10° N 13:03:47 80° E 13:09:57 10° S
STARLINK-26 3.4 13:03:21 57° N 13:03:53 68° NE 13:07:27 10° SE
STARLINK-30 4.1 13:03:25 36° NNW 13:04:40 53° NE 13:08:36 10° ESE
Helios 1A Rocket 4.3 13:00:54 10° NNE 13:04:41 39° E 13:08:28 10° S
STARLINK-33 4.0 13:05:00 36° NNW 13:06:18 55° NE 13:10:15 10° ESE
Cosmos 2056 Rocket 3.3 13:01:17 10° SSW 13:06:21 67° WNW 13:11:26 10° NNE
Cosmos 2227 Rocket 4.3 13:11:02 10° NNW 13:11:02 10° NNW 13:11:09 10° NNW
STARLINK-50 3.9 13:06:35 36° NNW 13:07:58 57° NE 13:11:55 10° ESE
Cosmos 1932 4.4 13:04:52 10° SSW 13:11:08 78° WNW 13:17:34 10° NNE
STARLINK-56 3.8 13:09:47 34° NNW 13:11:19 62° NE 13:15:17 10° SE
Starlink (trailer) 3.8 13:11:22 34° NNW 13:12:57 64° NE 13:16:56 10° SE
STARLINK-38 3.7 13:12:56 33° NNW 13:14:35 67° NE 13:18:34 10° SE
STARLINK-65 3.7 13:14:31 32° NNW 13:16:14 70° NE 13:20:14 10° SE
Cosmos 1190 Rocket 4.2 13:11:57 10° NNW 13:17:09 70° ENE 13:22:22 10° SSE
CZ-4B R/B 3.7 13:12:23 10° NNE 13:17:58 65° ESE 13:23:33 10° S
PAYLOAD B 4.2 13:13:58 10° NNE 13:19:30 89° WNW 13:25:03 10° SSW
STARLINK-69 3.5 13:19:23 30° NW 13:21:16 81° NE 13:25:16 10° SE
Geosat 3.9 13:16:26 10° SSE 13:21:26 69° WSW 13:25:34 15° NNW
MOS 1-B 4.3 13:16:10 10° N 13:21:54 66° WNW 13:27:36 10° SSW
STARLINK-66 3.5 13:20:55 29° NW 13:22:53 82° NE 13:26:54 10° SE
Lacrosse 5 1.9 13:21:05 26° NW 13:23:50 62° SW 13:28:48 10° SSE
SKYMED 2 3.5 13:22:28 10° S 13:26:46 66° W 13:31:05 10° NNW
STARLINK-70 3.5 13:25:40 27° NW 13:27:49 88° SW 13:31:50 10° SE
FENGYUN 3A 3.5 13:23:13 10° N 13:28:36 75° WNW 13:33:57 10° SSW
Cosmos 1420 Rocket 4.0 13:23:51 10° SSW 13:29:04 86° ESE 13:34:17 10° NNE
STARLINK-68 3.4 13:27:24 26° NW 13:29:34 80° SW 13:33:35 10° SE
STARLINK-58 3.4 13:28:53 25° NW 13:31:09 81° SW 13:35:09 10° SE
Cosmos 2034 Rocket 4.4 13:26:14 10° SW 13:32:01 39° WNW 13:37:54 10° N
Cosmos 1634 Rocket 4.0 13:26:34 10° S 13:32:48 86° E 13:39:01 10° N
STARLINK-62 3.5 13:30:35 24° NW 13:32:53 75° SW 13:36:53 10° SE
STARLINK-63 3.5 13:32:04 23° NW 13:34:28 75° SW 13:38:27 10° SE
STARLINK-72 3.5 13:35:07 21° NW 13:37:40 73° SW 13:41:39 10° SE
STARLINK-59 3.6 13:38:24 20° NW 13:41:02 64° SW 13:45:00 10° SSE
Cosmos 1602 3.9 13:38:02 10° S 13:41:51 72° E 13:45:39 10° N
SJ-7 4.4 13:38:07 10° NNE 13:42:09 84° ESE 13:46:07 10° S
SL-23 DEB 3.3 13:40:15 10° SW 13:43:40 62° NW 13:46:48 10° NE
STARLINK-55 3.7 13:41:34 19° WNW 13:44:20 59° SW 13:48:16 10° SSE
STARLINK-28 3.7 13:43:13 18° WNW 13:46:01 56° SW 13:49:56 10° SSE
ALOS 2.6 13:42:07 10° N 13:46:29 41° WNW 13:50:50 10° SW
SL-16 R/B 2.9 13:42:27 13° NW 13:46:56 34° WSW 13:51:59 10° SSW
GEOS 3 Rocket 4.5 13:43:13 10° S 13:47:38 30° WSW 13:51:26 13° WNW
STARLINK-53 3.8 13:46:21 17° WNW 13:49:16 51° SW 13:53:10 10° SSE
Cosmos 1484 Rocket 4.2 13:47:14 10° NNW 13:49:50 17° WNW 13:52:24 10° WSW
PSLV R/B 4.0 13:49:49 18° NW 13:50:38 22° NNW 13:52:39 10° NE
STARLINK-54 3.9 13:48:00 16° WNW 13:50:59 49° SW 13:54:50 10° SSE
Cosmos 1340 2.9 13:48:50 10° S 13:52:33 71° E 13:56:18 10° NNE
Cosmos 1452 Rocket 3.5 13:47:56 10° SSW 13:53:11 72° WNW 13:58:28 10° NNE
Cosmos 1603 4.1 13:47:30 10° NNW 13:53:13 67° ENE 13:58:52 10° SSE
STARLINK-34 4.0 13:51:10 15° WNW 13:54:15 45° SW 13:58:04 10° SSE
STARLINK-81 4.0 13:54:05 14° WNW 13:57:23 46° SW 14:01:13 10° SSE
NOAA 6 4.2 13:53:24 10° N 13:58:19 49° WNW 14:03:14 10° SW
STARLINK-24 4.2 13:55:56 13° WNW 13:59:11 40° SW 14:02:57 10° SSE
STARLINK-77 4.1 13:57:16 12° WNW 14:00:41 43° SW 14:04:29 10° SSE
CZ-4C R/B 3.1 13:53:27 10° NW 14:01:04 69° WSW 14:09:24 10° SSE
STARLINK-25 4.2 13:58:51 12° WNW 14:02:18 41° SW 14:06:05 10° SSE
STARLINK-71 4.4 14:00:43 11° WNW 14:04:07 35° SW 14:07:46 10° SSE
STARLINK-79 4.3 14:02:02 11° WNW 14:05:36 38° SW 14:09:19 10° SSE
Okean 1-7 3.2 14:01:34 10° NNW 14:05:53 55° W 14:10:09 10° S
BREEZE-M DEB (TANK) 4.0 14:03:42 10° SSW 14:05:55 42° SE 14:09:12 10° ENE
Cosmos 1092 Rocket 4.2 14:01:03 10° NNW 14:06:54 47° W 14:12:43 10° SSW
STARLINK-78 4.4 14:03:39 10° WNW 14:07:16 36° SW 14:10:57 10° SSE
Cosmos 2221 Rocket 4.3 14:03:47 10° N 14:08:08 58° E 14:12:28 10° SSE
STARLINK-57 4.5 14:05:22 10° WNW 14:08:59 33° SW 14:12:36 10° SSE
Cosmos 407 Rocket 4.4 14:05:20 10° NW 14:09:55 30° W 14:14:28 10° SSW
STARLINK-49 4.5 14:06:54 10° WNW 14:10:32 33° SW 14:14:10 10° SSE
Meteor 1-18 Rocket 4.2 14:05:08 10° N 14:10:40 78° W 14:16:14 10° S
Cosmos 1346 Rocket 2.7 14:10:04 10° SSW 14:13:53 63° W 14:17:44 10° N
COSMO-SKYMED 1 4.1 14:12:01 10° SW 14:14:55 18° W 14:17:51 10° NW
Cosmos 1140 Rocket 4.1 14:13:43 10° NW 14:18:27 36° W 14:23:11 10° SSW
Okean O Rocket 2.7 14:16:37 10° NNW 14:20:03 23° WNW 14:23:29 10° WSW
CORIOLIS 4.3 14:16:59 10° NNE 14:22:26 83° ESE 14:27:48 10° SSW
